Flippin, AR

10:31 PM CDT on May 26, 2017 (GMT -0500)
Marion County Regional

Weather History for KFLP - January, 2001

Change the Weather History Date:

Tuesday, January 2, 2001

  Actual Average Record
Temperature  
Mean Temperature 16 °F -  
Max Temperature 26 °F 45 °F 73 °F (2004)
Min Temperature 6 °F 26 °F 6 °F (2001)
Degree Days  
Heating Degree Days 49    
Moisture  
Dew Point 7 °F    
Average Humidity 67    
Maximum Humidity 92    
Minimum Humidity 47    
Precipitation  
Precipitation 0.00 in - - ()
Sea Level Pressure  
Sea Level Pressure 30.69 in    
Wind  
Wind Speed 1 mph (East)    
Max Wind Speed 5 mph    
Max Gust Speed -    
Visibility 10 miles    
Events      
Averages and records for this station are not official NWS values.
T = Trace of Precipitation, MM = Missing Value Source: NWS Daily Summary

Daily Weather History Graph

Daily Weather History Graph

Search for Another Location

Airport or City:

Trip Planner

Search our weather history database for the weather conditions in past years. The results will help you decide how hot, cold, wet, or windy it might be!

Date:

Astronomy

Jan. 02, 2001 Rise Set
Actual Time 7:22 AM CST 5:07 PM CST
Civil Twilight 6:53 AM CST 5:35 PM CST
Nautical Twilight 6:21 AM CST 6:07 PM CST
Astronomical Twilight 5:50 AM CST 6:39 PM CST
Moon 12:09 PM CST (1/2) No Moon Set
Length of Visible Light 10h 42m
Length of Day
9h 45m
Waxing Crescent, 48% of the Moon is Illuminated
Jan 2
Waxing Crescent
Jan 2
First Quarter
Jan 9
Full
Jan 16
Last Quarter
Jan 24
New

Hourly Weather History & Observations

Time (CST) Temp. Windchill Dew Point Humidity Pressure Visibility Wind Dir Wind Speed Gust Speed Precip Events Conditions
12:15 AM 15.8 °F - 5.0 °F 62% 30.62 in 10.0 mi Calm Calm - N/A   Partly Cloudy
12:35 AM 14.0 °F 8.2 °F 5.0 °F 67% 30.62 in 10.0 mi North 3.5 mph - N/A   Clear
12:55 AM 14.0 °F - 6.8 °F 73% 30.62 in 10.0 mi Calm Calm - N/A   Clear
1:15 AM 12.2 °F - 6.8 °F 79% 30.63 in 10.0 mi Calm Calm - N/A   Clear
1:35 AM 12.2 °F - 6.8 °F 79% 30.63 in 10.0 mi Calm Calm - N/A   Clear
1:55 AM 12.2 °F - 6.8 °F 79% 30.64 in 10.0 mi Calm Calm - N/A   Clear
2:15 AM 10.4 °F - 5.0 °F 79% 30.65 in 10.0 mi Calm Calm - N/A   Clear
2:35 AM 12.2 °F 6.1 °F 6.8 °F 79% 30.66 in 10.0 mi NNE 3.5 mph - N/A   Clear
2:55 AM 12.2 °F - 5.0 °F 73% 30.66 in 10.0 mi Calm Calm - N/A   Clear
3:15 AM 10.4 °F - 5.0 °F 79% 30.66 in 10.0 mi Calm Calm - N/A   Clear
3:35 AM 10.4 °F - 5.0 °F 79% 30.66 in 10.0 mi Calm Calm - N/A   Clear
3:55 AM 10.4 °F - 6.8 °F 85% 30.67 in 10.0 mi Calm Calm - N/A   Clear
4:15 AM 8.6 °F - 3.2 °F 79% 30.67 in 10.0 mi Calm Calm - N/A   Clear
4:35 AM 8.6 °F - 3.2 °F 79% 30.67 in 10.0 mi Calm Calm - N/A   Clear
4:55 AM 8.6 °F - 5.0 °F 85% 30.68 in 10.0 mi Calm Calm - N/A   Clear
5:15 AM 8.6 °F - 6.8 °F 92% 30.68 in 10.0 mi Calm Calm - N/A   Clear
5:35 AM 8.6 °F - 5.0 °F 85% 30.69 in 10.0 mi Calm Calm - N/A   Clear
5:55 AM 8.6 °F - 3.2 °F 79% 30.70 in 10.0 mi Calm Calm - N/A   Clear
6:15 AM 8.6 °F - 3.2 °F 79% 30.70 in 10.0 mi Calm Calm - N/A   Clear
6:35 AM 6.8 °F - 1.4 °F 79% 30.70 in 10.0 mi Calm Calm - N/A   Clear
6:55 AM 6.8 °F - 3.2 °F 85% 30.71 in 10.0 mi Calm Calm - N/A   Clear
7:15 AM 6.8 °F - 3.2 °F 85% 30.72 in 10.0 mi Calm Calm - N/A   Clear
7:35 AM 6.8 °F - 1.4 °F 79% 30.73 in 10.0 mi Calm Calm - N/A   Clear
7:55 AM 6.8 °F - 3.2 °F 85% 30.74 in 10.0 mi Calm Calm - N/A   Clear
8:15 AM 8.6 °F - 5.0 °F 85% 30.74 in 9.0 mi Calm Calm - N/A   Clear
8:35 AM 10.4 °F - 6.8 °F 85% 30.75 in 10.0 mi Calm Calm - N/A   Clear
8:55 AM 12.2 °F - 6.8 °F 79% 30.76 in 10.0 mi Calm Calm - N/A   Clear
9:15 AM 12.2 °F - 6.8 °F 79% 30.77 in 10.0 mi Calm Calm - N/A   Clear
9:35 AM 14.0 °F - 6.8 °F 73% 30.77 in 10.0 mi Calm Calm - N/A   Clear
9:55 AM 15.8 °F - 6.8 °F 68% 30.78 in 10.0 mi Calm Calm - N/A   Clear
10:15 AM 17.6 °F - 8.6 °F 68% 30.78 in 10.0 mi Calm Calm - N/A   Clear
10:35 AM 17.6 °F 12.3 °F 6.8 °F 63% 30.78 in 10.0 mi East 3.5 mph - N/A   Clear
10:55 AM 19.4 °F 14.3 °F 6.8 °F 58% 30.78 in 10.0 mi NNE 3.5 mph - N/A   Clear
11:15 AM 19.4 °F - 6.8 °F 58% 30.77 in 10.0 mi Calm Calm - N/A   Clear
11:35 AM 21.2 °F - 6.8 °F 54% 30.76 in 10.0 mi Calm Calm - N/A   Clear
11:55 AM 21.2 °F - 8.6 °F 58% 30.74 in 10.0 mi Calm Calm - N/A   Clear
12:15 PM 21.2 °F 16.4 °F 6.8 °F 54% 30.73 in 10.0 mi East 3.5 mph - N/A   Clear
12:35 PM 21.2 °F 16.4 °F 8.6 °F 58% 30.72 in 10.0 mi East 3.5 mph - N/A   Clear
12:55 PM 23.0 °F - 6.8 °F 50% 30.71 in 10.0 mi Calm Calm - N/A   Clear
1:15 PM 24.8 °F 20.5 °F 8.6 °F 50% 30.70 in 10.0 mi East 3.5 mph - N/A   Clear
1:35 PM 24.8 °F - 8.6 °F 50% 30.69 in 10.0 mi Calm Calm - N/A   Clear
1:55 PM 24.8 °F 20.5 °F 8.6 °F 50% 30.69 in 10.0 mi East 3.5 mph - N/A   Clear
2:15 PM 26.6 °F 22.6 °F 10.4 °F 51% 30.68 in 10.0 mi East 3.5 mph - N/A   Clear
2:35 PM 26.6 °F 22.6 °F 8.6 °F 47% 30.68 in 10.0 mi SSE 3.5 mph - N/A   Clear
2:55 PM 26.6 °F 22.6 °F 10.4 °F 51% 30.67 in 10.0 mi ENE 3.5 mph - N/A   Clear
3:15 PM 26.6 °F 22.6 °F 10.4 °F 51% 30.66 in 10.0 mi East 3.5 mph - N/A   Clear
3:35 PM 26.6 °F 22.6 °F 8.6 °F 47% 30.66 in 10.0 mi SSW 3.5 mph - N/A   Clear
3:55 PM 26.6 °F - 8.6 °F 47% 30.66 in 10.0 mi Calm Calm - N/A   Clear
4:15 PM 26.6 °F 21.2 °F 8.6 °F 47% 30.65 in 10.0 mi WSW 4.6 mph - N/A   Clear
4:35 PM 26.6 °F 22.6 °F 8.6 °F 47% 30.65 in 10.0 mi SW 3.5 mph - N/A   Clear
4:55 PM 26.6 °F 22.6 °F 8.6 °F 47% 30.64 in 10.0 mi SSW 3.5 mph - N/A   Clear
5:15 PM 26.6 °F - 10.4 °F 51% 30.64 in 10.0 mi Calm Calm - N/A   Clear
5:35 PM 24.8 °F - 10.4 °F 54% 30.64 in 10.0 mi Calm Calm - N/A   Clear
5:55 PM 24.8 °F - 10.4 °F 54% 30.65 in 10.0 mi Calm Calm - N/A   Clear
6:15 PM 24.8 °F - 10.4 °F 54% 30.65 in 10.0 mi Calm Calm - N/A   Clear
6:35 PM 21.2 °F - 10.4 °F 63% 30.64 in 10.0 mi Calm Calm - N/A   Clear
6:55 PM 21.2 °F - 10.4 °F 63% 30.65 in 10.0 mi Calm Calm - N/A   Clear
7:15 PM 19.4 °F - 10.4 °F 68% 30.64 in 10.0 mi Calm Calm - N/A   Clear
7:35 PM 19.4 °F - 10.4 °F 68% 30.64 in 10.0 mi Calm Calm - N/A   Clear
7:55 PM 19.4 °F - 10.4 °F 68% 30.63 in 10.0 mi Calm Calm - N/A   Clear
8:15 PM 17.6 °F - 8.6 °F 68% 30.64 in 10.0 mi Calm Calm - N/A   Clear
8:35 PM 15.8 °F - 10.4 °F 79% 30.64 in 10.0 mi Calm Calm - N/A   Clear
8:55 PM 17.6 °F - 8.6 °F 68% 30.64 in 10.0 mi Calm Calm - N/A   Clear
9:15 PM 17.6 °F - 8.6 °F 68% 30.63 in 10.0 mi Calm Calm - N/A   Clear
9:35 PM 17.6 °F - 10.4 °F 73% 30.62 in 10.0 mi Calm Calm - N/A   Clear
9:55 PM 15.8 °F - 8.6 °F 73% 30.62 in 10.0 mi Calm Calm - N/A   Clear
10:15 PM 15.8 °F - 8.6 °F 73% 30.62 in 10.0 mi Calm Calm - N/A   Clear
10:35 PM 14.0 °F - 8.6 °F 79% 30.61 in 10.0 mi Calm Calm - N/A   Clear
10:55 PM 14.0 °F - 10.4 °F 86% 30.61 in 10.0 mi Calm Calm - N/A   Clear
11:15 PM 14.0 °F - 8.6 °F 79% 30.59 in 10.0 mi Calm Calm - N/A   Clear
11:35 PM 12.2 °F - 8.6 °F 85% 30.59 in 10.0 mi Calm Calm - N/A   Clear
11:55 PM 12.2 °F - 8.6 °F 85% 30.58 in 10.0 mi Calm Calm - N/A   Clear